Private Wetterstation Wechselburg
Wetterdaten: Freitag, 22.04.2011
Datum Zeit Temp. +2m Bodentemp. Temp.+5cm Temp. Wind Windchill X Diff Temp. Feuchte +2m Feuchte +5cm Sonnenschein Luftdruck Regen Wind Richtung Richtung Sonnenschein UV Taupunkt Windchill Windben
22.04.2011 00:00 12,7 C 16,8 C 10,5 C 11,3 C 8,6 C 0,0 C 73 % 81 % 0 % 1015,6 hPa 0,0 l/m 0,0 km/h (0 Bft) SW 225 0 min 0,0 UV-I 8,0 C 8,6 C 0,0 km/h (0 Bft)
22.04.2011 00:10 12,3 C 16,9 C 10,3 C 11,0 C 8,4 C 0,0 C 73 % 81 % 0 % 1015,6 hPa 0,0 l/m 0,0 km/h (0 Bft) N 0 0 min 0,0 UV-I 7,6 C 8,4 C 0,0 km/h (0 Bft)
22.04.2011 00:15 12,3 C 16,8 C 10,3 C 11,0 C 8,4 C 0,0 C 73 % 81 % 0 % 1015,4 hPa 0,0 l/m 0,0 km/h (0 Bft) NW 315 0 min 0,0 UV-I 7,6 C 8,4 C 0,0 km/h (0 Bft)
22.04.2011 00:20 12,3 C 16,7 C 10,3 C 11,0 C 8,3 C 0,0 C 74 % 81 % 0 % 1015,4 hPa 0,0 l/m 0,0 km/h (0 Bft) NW 315 0 min 0,0 UV-I 7,8 C 8,3 C 0,0 km/h (0 Bft)
22.04.2011 00:25 12,1 C 16,8 C 10,1 C 10,8 C 8,3 C 0,0 C 74 % 81 % 0 % 1015,4 hPa 0,0 l/m 0,0 km/h (0 Bft) NW 315 0 min 0,0 UV-I 7,6 C 8,3 C 0,0 km/h (0 Bft)
22.04.2011 00:30 11,8 C 16,8 C 10,0 C 10,6 C 8,2 C 0,0 C 74 % 82 % 0 % 1015,4 hPa 0,0 l/m 0,0 km/h (0 Bft) NW 315 0 min 0,0 UV-I 7,3 C 8,2 C 0,0 km/h (0 Bft)
22.04.2011 00:35 11,7 C 16,8 C 10,0 C 10,5 C 8,2 C 0,0 C 75 % 82 % 0 % 1015,1 hPa 0,0 l/m 0,0 km/h (0 Bft) NW 315 0 min 0,0 UV-I 7,4 C 8,2 C 0,0 km/h (0 Bft)
22.04.2011 00:40 11,6 C 16,7 C 9,8 C 10,5 C 8,3 C 0,0 C 75 % 82 % 0 % 1015,1 hPa 0,0 l/m 0,0 km/h (0 Bft) O-NO 67 0 min 0,0 UV-I 7,3 C 8,3 C 0,0 km/h (0 Bft)
22.04.2011 00:45 11,7 C 16,8 C 9,8 C 10,5 C 8,1 C 0,0 C 76 % 82 % 0 % 1015,1 hPa 0,0 l/m 0,0 km/h (0 Bft) NW 315 0 min 0,0 UV-I 7,6 C 8,1 C 0,0 km/h (0 Bft)
22.04.2011 00:50 11,6 C 16,7 C 9,6 C 10,4 C 8,0 C 0,0 C 75 % 82 % 0 % 1015,1 hPa 0,0 l/m 0,0 km/h (0 Bft) W-SW 247 0 min 0,0 UV-I 7,3 C 8,0 C 0,0 km/h (0 Bft)
22.04.2011 00:55 11,6 C 16,7 C 9,6 C 10,3 C 7,7 C 0,0 C 75 % 83 % 0 % 1015,1 hPa 0,0 l/m 0,0 km/h (0 Bft) W-SW 247 0 min 0,0 UV-I 7,3 C 7,7 C 0,0 km/h (0 Bft)
22.04.2011 01:00 11,5 C 16,7 C 9,5 C 10,2 C 7,6 C 0,0 C 75 % 83 % 0 % 1015,1 hPa 0,0 l/m 0,0 km/h (0 Bft) NW 315 0 min 0,0 UV-I 7,2 C 7,6 C 0,0 km/h (0 Bft)
22.04.2011 01:08 11,4 C 16,7 C 9,4 C 10,1 C 7,4 C 0,0 C 76 % 83 % 0 % 1015,1 hPa 0,0 l/m 0,0 km/h (0 Bft) N 0 0 min 0,0 UV-I 7,3 C 7,4 C 0,0 km/h (0 Bft)
22.04.2011 01:15 11,3 C 16,6 C 9,3 C 10,0 C 7,3 C 0,0 C 76 % 83 % 0 % 1015,0 hPa 0,0 l/m 0,0 km/h (0 Bft) W 270 0 min 0,0 UV-I 7,2 C 7,3 C 0,0 km/h (0 Bft)
22.04.2011 01:20 11,3 C 16,7 C 9,2 C 9,9 C 7,2 C 0,0 C 76 % 83 % 0 % 1015,0 hPa 0,0 l/m 0,0 km/h (0 Bft) W 270 0 min 0,0 UV-I 7,2 C 7,2 C 0,0 km/h (0 Bft)
22.04.2011 01:25 10,9 C 16,7 C 9,2 C 9,7 C 7,2 C 0,0 C 76 % 83 % 0 % 1015,0 hPa 0,0 l/m 0,0 km/h (0 Bft) N-NW 337 0 min 0,0 UV-I 6,8 C 7,2 C 0,0 km/h (0 Bft)
22.04.2011 01:30 10,9 C 16,6 C 9,1 C 9,7 C 7,2 C 0,0 C 76 % 83 % 0 % 1015,0 hPa 0,0 l/m 0,0 km/h (0 Bft) N-NW 337 0 min 0,0 UV-I 6,8 C 7,2 C 0,0 km/h (0 Bft)
22.04.2011 01:35 10,8 C 16,7 C 9,0 C 9,5 C 7,0 C 0,0 C 77 % 84 % 0 % 1014,8 hPa 0,0 l/m 0,0 km/h (0 Bft) N-NW 337 0 min 0,0 UV-I 6,9 C 7,0 C 0,0 km/h (0 Bft)
22.04.2011 01:40 10,7 C 16,6 C 9,1 C 9,5 C 7,1 C 0,0 C 77 % 84 % 0 % 1014,8 hPa 0,0 l/m 0,0 km/h (0 Bft) N-NW 337 0 min 0,0 UV-I 6,8 C 7,1 C 0,0 km/h (0 Bft)
22.04.2011 01:45 10,7 C 16,6 C 9,1 C 9,4 C 6,9 C 0,0 C 78 % 84 % 0 % 1014,8 hPa 0,0 l/m 0,0 km/h (0 Bft) N-NW 337 0 min 0,0 UV-I 7,0 C 6,9 C 0,0 km/h (0 Bft)
22.04.2011 01:50 10,6 C 16,6 C 8,9 C 9,4 C 6,9 C 0,0 C 77 % 84 % 0 % 1014,8 hPa 0,0 l/m 0,0 km/h (0 Bft) N-NW 337 0 min 0,0 UV-I 6,7 C 6,9 C 0,0 km/h (0 Bft)
22.04.2011 01:55 10,5 C 16,5 C 8,8 C 9,3 C 6,8 C 0,0 C 78 % 84 % 0 % 1014,6 hPa 0,0 l/m 0,0 km/h (0 Bft) W-SW 247 0 min 0,0 UV-I 6,8 C 6,8 C 0,0 km/h (0 Bft)
22.04.2011 02:00 10,5 C 16,5 C 8,7 C 9,2 C 6,7 C 0,0 C 77 % 84 % 0 % 1014,6 hPa 0,0 l/m 0,0 km/h (0 Bft) SW 225 0 min 0,0 UV-I 6,6 C 6,7 C 0,0 km/h (0 Bft)
22.04.2011 02:10 10,3 C 16,5 C 8,6 C 9,1 C 6,6 C 0,0 C 77 % 84 % 0 % 1014,6 hPa 0,0 l/m 0,0 km/h (0 Bft) N 0 0 min 0,0 UV-I 6,4 C 6,6 C 0,0 km/h (0 Bft)
22.04.2011 02:15 10,3 C 16,5 C 8,5 C 9,1 C 6,6 C 0,0 C 79 % 84 % 0 % 1014,9 hPa 0,0 l/m 0,0 km/h (0 Bft) W-SW 247 0 min 0,0 UV-I 6,8 C 6,6 C 0,0 km/h (0 Bft)
22.04.2011 02:20 10,3 C 16,5 C 8,5 C 9,1 C 6,6 C 0,0 C 78 % 84 % 0 % 1014,9 hPa 0,0 l/m 0,0 km/h (0 Bft) W-SW 247 0 min 0,0 UV-I 6,6 C 6,6 C 0,0 km/h (0 Bft)
22.04.2011 02:25 10,2 C 16,4 C 8,5 C 8,9 C 6,4 C 0,0 C 78 % 85 % 0 % 1014,9 hPa 0,0 l/m 0,0 km/h (0 Bft) W-SW 247 0 min 0,0 UV-I 6,5 C 6,4 C 0,0 km/h (0 Bft)
22.04.2011 02:30 10,0 C 16,4 C 8,5 C 8,8 C 6,4 C 0,0 C 78 % 85 % 0 % 1014,9 hPa 0,0 l/m 0,0 km/h (0 Bft) NW 315 0 min 0,0 UV-I 6,3 C 6,4 C 0,0 km/h (0 Bft)
22.04.2011 02:35 10,0 C 16,4 C 8,3 C 8,8 C 6,5 C 0,0 C 79 % 85 % 0 % 1014,6 hPa 0,0 l/m 0,0 km/h (0 Bft) W-NW 292 0 min 0,0 UV-I 6,5 C 6,5 C 0,0 km/h (0 Bft)
22.04.2011 02:40 10,0 C 16,3 C 8,3 C 8,8 C 6,5 C 0,0 C 79 % 85 % 0 % 1014,6 hPa 0,0 l/m 0,2 km/h (0 Bft) W-SW 247 0 min 0,0 UV-I 6,5 C 6,5 C 0,0 km/h (0 Bft)
22.04.2011 02:45 9,9 C 16,3 C 8,2 C 8,7 C 6,4 C 0,0 C 78 % 85 % 0 % 1014,6 hPa 0,0 l/m 0,2 km/h (0 Bft) W-NW 292 0 min 0,0 UV-I 6,2 C 6,4 C 0,0 km/h (0 Bft)
22.04.2011 02:50 9,9 C 16,3 C 8,1 C 8,7 C 6,3 C 0,0 C 78 % 85 % 0 % 1014,6 hPa 0,0 l/m 0,2 km/h (0 Bft) SW 225 0 min 0,0 UV-I 6,2 C 6,3 C 0,0 km/h (0 Bft)
22.04.2011 02:55 9,9 C 16,3 C 8,0 C 8,7 C 6,2 C 0,0 C 78 % 85 % 0 % 1014,5 hPa 0,0 l/m 0,2 km/h (0 Bft) SW 225 0 min 0,0 UV-I 6,2 C 6,2 C 0,0 km/h (0 Bft)
22.04.2011 03:00 9,9 C 16,3 C 7,9 C 8,6 C 6,1 C 0,0 C 78 % 85 % 0 % 1014,5 hPa 0,0 l/m 0,2 km/h (0 Bft) SW 225 0 min 0,0 UV-I 6,2 C 6,1 C 0,0 km/h (0 Bft)
22.04.2011 03:10 9,6 C 16,2 C 7,8 C 8,4 C 5,9 C 0,0 C 78 % 86 % 0 % 1014,5 hPa 0,0 l/m 0,0 km/h (0 Bft) N 0 0 min 0,0 UV-I 6,0 C 5,9 C 0,0 km/h (0 Bft)
22.04.2011 03:15 9,2 C 16,2 C 7,7 C 8,1 C 5,9 C 0,0 C 79 % 85 % 0 % 1014,3 hPa 0,0 l/m 0,0 km/h (0 Bft) SW 225 0 min 0,0 UV-I 5,8 C 5,9 C 0,0 km/h (0 Bft)
22.04.2011 03:20 9,1 C 16,2 C 7,6 C 8,0 C 5,9 C 0,0 C 79 % 86 % 0 % 1014,3 hPa 0,0 l/m 0,0 km/h (0 Bft) SW 225 0 min 0,0 UV-I 5,7 C 5,9 C 0,0 km/h (0 Bft)
22.04.2011 03:25 9,0 C 16,2 C 7,6 C 8,0 C 5,9 C 0,0 C 80 % 86 % 0 % 1014,3 hPa 0,0 l/m 0,0 km/h (0 Bft) SW 225 0 min 0,0 UV-I 5,7 C 5,9 C 0,0 km/h (0 Bft)
22.04.2011 03:30 9,1 C 16,2 C 7,6 C 8,0 C 5,9 C 0,0 C 80 % 86 % 0 % 1014,3 hPa 0,0 l/m 0,0 km/h (0 Bft) SW 225 0 min 0,0 UV-I 5,8 C 5,9 C 0,0 km/h (0 Bft)
22.04.2011 03:35 9,2 C 16,1 C 7,6 C 8,0 C 5,6 C 0,0 C 80 % 86 % 0 % 1014,4 hPa 0,0 l/m 0,0 km/h (0 Bft) SW 225 0 min 0,0 UV-I 5,9 C 5,6 C 0,0 km/h (0 Bft)
22.04.2011 03:40 9,2 C 16,1 C 7,5 C 8,0 C 5,5 C 0,0 C 80 % 86 % 0 % 1014,4 hPa 0,0 l/m 0,0 km/h (0 Bft) SW 225 0 min 0,0 UV-I 5,9 C 5,5 C 0,0 km/h (0 Bft)
22.04.2011 03:45 9,2 C 16,1 C 7,5 C 7,9 C 5,4 C 0,0 C 80 % 86 % 0 % 1014,4 hPa 0,0 l/m 0,0 km/h (0 Bft) W-SW 247 0 min 0,0 UV-I 5,9 C 5,4 C 0,0 km/h (0 Bft)
22.04.2011 03:50 9,1 C 16,1 C 7,5 C 7,9 C 5,4 C 0,0 C 80 % 86 % 0 % 1014,4 hPa 0,0 l/m 0,0 km/h (0 Bft) W-SW 247 0 min 0,0 UV-I 5,8 C 5,4 C 0,0 km/h (0 Bft)
22.04.2011 03:55 9,1 C 16,1 C 7,3 C 7,8 C 5,2 C 0,0 C 80 % 86 % 0 % 1014,4 hPa 0,0 l/m 0,0 km/h (0 Bft) W-SW 247 0 min 0,0 UV-I 5,8 C 5,2 C 0,0 km/h (0 Bft)
22.04.2011 04:00 9,1 C 16,1 C 7,2 C 7,8 C 5,2 C 0,0 C 80 % 86 % 0 % 1014,4 hPa 0,0 l/m 0,0 km/h (0 Bft) W-SW 247 0 min 0,0 UV-I 5,8 C 5,2 C 0,0 km/h (0 Bft)
22.04.2011 04:10 8,9 C 16,1 C 7,2 C 7,6 C 5,1 C 0,0 C 79 % 86 % 0 % 1014,4 hPa 0,0 l/m 0,0 km/h (0 Bft) N 0 0 min 0,0 UV-I 5,5 C 5,1 C 0,0 km/h (0 Bft)
22.04.2011 04:15 8,7 C 15,9 C 7,2 C 7,5 C 5,1 C 0,0 C 80 % 86 % 0 % 1014,5 hPa 0,0 l/m 0,0 km/h (0 Bft) W-SW 247 0 min 0,0 UV-I 5,4 C 5,1 C 0,0 km/h (0 Bft)
22.04.2011 04:20 8,7 C 15,9 C 7,1 C 7,5 C 5,0 C 0,0 C 80 % 86 % 0 % 1014,5 hPa 0,0 l/m 0,0 km/h (0 Bft) W-SW 247 0 min 0,0 UV-I 5,4 C 5,0 C 0,0 km/h (0 Bft)
22.04.2011 04:25 8,7 C 15,9 C 7,1 C 7,4 C 4,9 C 0,0 C 80 % 86 % 0 % 1014,5 hPa 0,0 l/m 0,0 km/h (0 Bft) W-SW 247 0 min 0,0 UV-I 5,4 C 4,9 C 0,0 km/h (0 Bft)
22.04.2011 04:30 8,5 C 15,9 C 7,0 C 7,3 C 4,9 C 0,0 C 80 % 86 % 0 % 1014,5 hPa 0,0 l/m 0,0 km/h (0 Bft) W-SW 247 0 min 0,0 UV-I 5,3 C 4,9 C 0,0 km/h (0 Bft)
22.04.2011 04:35 8,5 C 15,9 C 7,0 C 7,2 C 4,7 C 0,0 C 80 % 86 % 0 % 1014,8 hPa 0,0 l/m 0,0 km/h (0 Bft) W-SW 247 0 min 0,0 UV-I 5,3 C 4,7 C 0,0 km/h (0 Bft)
22.04.2011 04:40 8,4 C 15,9 C 7,0 C 7,2 C 4,7 C 0,0 C 80 % 86 % 0 % 1014,8 hPa 0,0 l/m 0,0 km/h (0 Bft) W-SW 247 0 min 0,0 UV-I 5,2 C 4,7 C 0,0 km/h (0 Bft)
22.04.2011 04:45 8,3 C 15,9 C 6,8 C 7,2 C 4,9 C 0,0 C 80 % 86 % 0 % 1014,8 hPa 0,0 l/m 0,0 km/h (0 Bft) W-SW 247 0 min 0,0 UV-I 5,1 C 4,9 C 0,0 km/h (0 Bft)
22.04.2011 04:50 8,1 C 15,9 C 6,9 C 7,0 C 4,9 C 0,0 C 81 % 87 % 0 % 1014,8 hPa 0,0 l/m 0,0 km/h (0 Bft) W-SW 247 0 min 0,0 UV-I 5,0 C 4,9 C 0,0 km/h (0 Bft)
22.04.2011 04:55 8,2 C 15,9 C 6,8 C 7,1 C 4,9 C 0,0 C 81 % 87 % 0 % 1014,5 hPa 0,0 l/m 0,0 km/h (0 Bft) W-SW 247 0 min 0,0 UV-I 5,1 C 4,9 C 0,0 km/h (0 Bft)
22.04.2011 05:00 8,3 C 15,9 C 6,8 C 7,2 C 4,9 C 0,0 C 81 % 87 % 0 % 1014,5 hPa 0,0 l/m 0,0 km/h (0 Bft) SW 225 0 min 0,0 UV-I 5,2 C 4,9 C 0,0 km/h (0 Bft)
22.04.2011 05:10 8,3 C 15,8 C 6,5 C 7,1 C 4,6 C 0,0 C 81 % 86 % 0 % 1014,5 hPa 0,0 l/m 0,2 km/h (0 Bft) N 0 0 min 0,0 UV-I 5,2 C 4,6 C 0,0 km/h (0 Bft)
22.04.2011 05:15 8,1 C 15,8 C 6,4 C 6,9 C 4,6 C 0,0 C 80 % 87 % 0 % 1014,2 hPa 0,0 l/m 0,2 km/h (0 Bft) SW 225 0 min 0,0 UV-I 4,9 C 4,6 C 0,0 km/h (0 Bft)
22.04.2011 05:20 8,0 C 15,8 C 6,4 C 6,8 C 4,4 C 0,0 C 80 % 87 % 0 % 1014,2 hPa 0,0 l/m 0,0 km/h (0 Bft) SW 225 0 min 0,0 UV-I 4,8 C 4,4 C 0,0 km/h (0 Bft)
22.04.2011 05:25 8,0 C 15,7 C 6,4 C 6,8 C 4,4 C 0,0 C 80 % 87 % 0 % 1014,2 hPa 0,0 l/m 0,0 km/h (0 Bft) SW 225 0 min 0,0 UV-I 4,8 C 4,4 C 0,0 km/h (0 Bft)
22.04.2011 05:30 8,0 C 15,7 C 6,3 C 6,8 C 4,3 C 0,0 C 80 % 87 % 0 % 1014,2 hPa 0,0 l/m 0,0 km/h (0 Bft) SW 225 0 min 0,0 UV-I 4,8 C 4,3 C 0,0 km/h (0 Bft)
22.04.2011 05:35 7,9 C 15,7 C 6,3 C 6,7 C 4,2 C 0,0 C 80 % 87 % 0 % 1014,2 hPa 0,0 l/m 0,0 km/h (0 Bft) SW 225 0 min 0,0 UV-I 4,7 C 4,2 C 0,0 km/h (0 Bft)
22.04.2011 05:40 7,8 C 15,7 C 6,2 C 6,6 C 4,1 C 0,0 C 81 % 87 % 0 % 1014,2 hPa 0,0 l/m 0,0 km/h (0 Bft) SW 225 0 min 0,0 UV-I 4,7 C 4,1 C 0,0 km/h (0 Bft)
22.04.2011 05:45 7,9 C 15,6 C 6,3 C 6,6 C 4,0 C 0,0 C 81 % 87 % 0 % 1014,2 hPa 0,0 l/m 0,0 km/h (0 Bft) SW 225 0 min 0,0 UV-I 4,8 C 4,0 C 0,0 km/h (0 Bft)
22.04.2011 05:50 7,9 C 15,6 C 6,3 C 6,6 C 4,1 C 0,0 C 81 % 87 % 0 % 1014,2 hPa 0,0 l/m 0,0 km/h (0 Bft) SW 225 0 min 0,0 UV-I 4,8 C 4,1 C 0,0 km/h (0 Bft)
22.04.2011 05:55 7,6 C 15,6 C 6,1 C 6,4 C 4,1 C 0,0 C 80 % 87 % 0 % 1014,4 hPa 0,0 l/m 0,0 km/h (0 Bft) SW 225 0 min 0,0 UV-I 4,4 C 4,1 C 0,0 km/h (0 Bft)
22.04.2011 06:00 7,5 C 15,6 C 6,0 C 6,4 C 4,2 C 0,0 C 81 % 87 % 0 % 1014,4 hPa 0,0 l/m 0,0 km/h (0 Bft) SW 225 0 min 0,0 UV-I 4,5 C 4,2 C 0,0 km/h (0 Bft)
22.04.2011 06:10 7,6 C 15,5 C 6,1 C 6,4 C 4,1 C 0,0 C 82 % 87 % 0 % 1014,4 hPa 0,0 l/m 0,0 km/h (0 Bft) N 0 0 min 0,0 UV-I 4,7 C 4,1 C 0,0 km/h (0 Bft)
22.04.2011 06:15 7,7 C 15,5 C 6,1 C 6,4 C 3,9 C 0,0 C 82 % 87 % 0 % 1014,5 hPa 0,0 l/m 0,0 km/h (0 Bft) SW 225 0 min 0,0 UV-I 4,8 C 3,9 C 0,0 km/h (0 Bft)
22.04.2011 06:20 7,6 C 15,5 C 6,1 C 6,4 C 3,9 C 0,0 C 82 % 87 % 0 % 1014,5 hPa 0,0 l/m 0,0 km/h (0 Bft) SW 225 0 min 0,0 UV-I 4,7 C 3,9 C 0,0 km/h (0 Bft)
22.04.2011 06:25 7,6 C 15,5 C 6,1 C 6,4 C 4,0 C 0,0 C 81 % 87 % 0 % 1014,5 hPa 0,0 l/m 0,0 km/h (0 Bft) SW 225 0 min 0,0 UV-I 4,6 C 4,0 C 0,0 km/h (0 Bft)
22.04.2011 06:30 7,7 C 15,4 C 6,1 C 6,5 C 4,0 C 0,0 C 82 % 87 % 0 % 1014,5 hPa 0,0 l/m 0,0 km/h (0 Bft) SW 225 0 min 0,0 UV-I 4,8 C 4,0 C 0,0 km/h (0 Bft)
22.04.2011 06:35 8,8 C 15,4 C 6,0 C 7,3 C 4,2 C 0,0 C 80 % 87 % 0 % 1014,6 hPa 0,0 l/m 0,0 km/h (0 Bft) SW 225 0 min 0,0 UV-I 5,5 C 4,2 C 0,0 km/h (0 Bft)
22.04.2011 06:40 9,2 C 15,4 C 6,0 C 7,6 C 4,3 C 0,0 C 78 % 87 % 0 % 1014,6 hPa 0,0 l/m 0,0 km/h (0 Bft) SW 225 0 min 0,0 UV-I 5,6 C 4,3 C 0,0 km/h (0 Bft)
22.04.2011 06:45 10,0 C 15,4 C 6,0 C 8,2 C 4,5 C 0,0 C 76 % 87 % 0 % 1014,6 hPa 0,0 l/m 0,0 km/h (0 Bft) SW 225 0 min 0,0 UV-I 6,0 C 4,5 C 0,0 km/h (0 Bft)
22.04.2011 06:50 10,5 C 15,4 C 6,1 C 8,5 C 4,5 C 0,0 C 75 % 87 % 0 % 1014,6 hPa 0,0 l/m 0,0 km/h (0 Bft) SW 225 0 min 0,0 UV-I 6,3 C 4,5 C 0,0 km/h (0 Bft)
22.04.2011 06:55 11,3 C 15,2 C 6,2 C 9,2 C 5,1 C 0,0 C 72 % 87 % 0 % 1014,4 hPa 0,0 l/m 0,0 km/h (0 Bft) SW 225 0 min 0,0 UV-I 6,4 C 5,1 C 0,0 km/h (0 Bft)
22.04.2011 07:00 11,6 C 15,2 C 6,2 C 9,7 C 6,0 C 0,0 C 71 % 87 % 0 % 1014,4 hPa 0,0 l/m 0,0 km/h (0 Bft) SW 225 0 min 0,0 UV-I 6,5 C 6,0 C 0,0 km/h (0 Bft)
22.04.2011 07:07 12,6 C 15,2 C 6,3 C 10,8 C 7,3 C 0,0 C 69 % 87 % 0 % 1014,4 hPa 0,0 l/m 0,0 km/h (0 Bft) N 0 0 min 0,0 UV-I 7,1 C 7,3 C 0,0 km/h (0 Bft)
22.04.2011 07:10 13,1 C 15,1 C 6,4 C 11,4 C 8,0 C 0,0 C 67 % 88 % 0 % 1014,4 hPa 0,0 l/m 0,0 km/h (0 Bft) N 0 0 min 0,0 UV-I 7,1 C 8,0 C 0,0 km/h (0 Bft)
22.04.2011 07:15 13,2 C 15,1 C 6,3 C 11,6 C 8,3 C 0,0 C 66 % 88 % 0 % 1014,6 hPa 0,0 l/m 0,0 km/h (0 Bft) SW 225 0 min 0,0 UV-I 7,0 C 8,3 C 0,0 km/h (0 Bft)
22.04.2011 07:20 13,2 C 15,1 C 6,4 C 11,7 C 8,6 C 0,0 C 66 % 88 % 0 % 1014,6 hPa 0,0 l/m 0,0 km/h (0 Bft) SW 225 0 min 0,0 UV-I 7,0 C 8,6 C 0,0 km/h (0 Bft)
22.04.2011 07:25 13,4 C 15,0 C 6,4 C 12,2 C 9,8 C 0,0 C 64 % 88 % 0 % 1014,6 hPa 0,0 l/m 0,0 km/h (0 Bft) W-SW 247 0 min 0,0 UV-I 6,7 C 9,8 C 0,0 km/h (0 Bft)
22.04.2011 07:30 12,7 C 15,0 C 6,5 C 11,9 C 10,3 C 0,0 C 66 % 88 % 0 % 1014,6 hPa 0,0 l/m 0,0 km/h (0 Bft) W-SW 247 0 min 0,0 UV-I 6,5 C 10,3 C 0,0 km/h (0 Bft)
22.04.2011 07:35 12,8 C 14,9 C 6,7 C 12,3 C 11,3 C 0,0 C 66 % 88 % 0 % 1014,8 hPa 0,0 l/m 0,0 km/h (0 Bft) W-SW 247 0 min 0,0 UV-I 6,6 C 11,3 C 0,0 km/h (0 Bft)
22.04.2011 07:40 12,4 C 14,9 C 6,8 C 12,3 C 12,1 C 0,0 C 67 % 88 % 0 % 1014,8 hPa 0,0 l/m 0,0 km/h (0 Bft) W-SW 247 0 min 0,0 UV-I 6,4 C 12,1 C 0,0 km/h (0 Bft)
22.04.2011 07:45 13,5 C 14,8 C 7,1 C 13,3 C 12,8 C 0,0 C 65 % 88 % 0 % 1014,8 hPa 0,0 l/m 0,0 km/h (0 Bft) W-SW 247 0 min 0,0 UV-I 7,1 C 12,8 C 0,0 km/h (0 Bft)
22.04.2011 07:50 13,1 C 14,8 C 7,2 C 13,5 C 13,5 C 0,4 C 66 % 88 % 11 % 1014,8 hPa 0,0 l/m 0,0 km/h (0 Bft) W-SW 247 0 min 0,0 UV-I 6,9 C 13,5 C 0,0 km/h (0 Bft)
22.04.2011 07:55 13,5 C 14,7 C 7,2 C 13,4 C 13,3 C 0,0 C 66 % 87 % 0 % 1014,9 hPa 0,0 l/m 0,2 km/h (0 Bft) SW 225 0 min 0,1 UV-I 7,3 C 13,3 C 1,6 km/h (1 Bft)
22.04.2011 08:00 13,3 C 14,7 C 7,2 C 13,3 C 13,3 C 0,0 C 66 % 87 % 0 % 1014,9 hPa 0,0 l/m 0,2 km/h (0 Bft) SW 225 0 min 0,1 UV-I 7,1 C 13,3 C 0,0 km/h (0 Bft)
22.04.2011 08:05 13,1 C 14,7 C 7,5 C 14,2 C 14,2 C 1,1 C 66 % 87 % 29 % 1014,9 hPa 0,0 l/m 0,0 km/h (0 Bft) SW 225 0 min 0,1 UV-I 6,9 C 14,2 C 0,0 km/h (0 Bft)
22.04.2011 08:10 12,9 C 14,6 C 7,5 C 15,0 C 15,0 C 2,1 C 66 % 87 % 55 % 1014,9 hPa 0,0 l/m 0,0 km/h (0 Bft) W-SW 247 0 min 0,1 UV-I 6,7 C 15,0 C 0,0 km/h (0 Bft)
22.04.2011 08:15 13,1 C 14,5 C 7,8 C 16,1 C 16,1 C 3,0 C 67 % 87 % 79 % 1014,8 hPa 0,0 l/m 0,0 km/h (0 Bft) SW 225 0 min 0,1 UV-I 7,1 C 16,1 C 0,0 km/h (0 Bft)
22.04.2011 08:20 13,2 C 14,5 C 8,0 C 16,0 C 16,0 C 2,8 C 67 % 88 % 74 % 1014,8 hPa 0,0 l/m 0,0 km/h (0 Bft) W-SW 247 0 min 0,1 UV-I 7,2 C 16,0 C 0,0 km/h (0 Bft)
22.04.2011 08:25 12,9 C 14,5 C 8,3 C 16,5 C 16,5 C 3,6 C 68 % 88 % 95 % 1014,8 hPa 0,0 l/m 0,0 km/h (0 Bft) SW 225 5 min 0,2 UV-I 7,1 C 16,5 C 0,0 km/h (0 Bft)
22.04.2011 08:30 12,8 C 14,5 C 8,4 C 16,8 C 16,8 C 4,0 C 69 % 87 % 100 % 1014,8 hPa 0,0 l/m 0,0 km/h (0 Bft) SW 225 5 min 0,2 UV-I 7,3 C 16,8 C 0,0 km/h (0 Bft)
22.04.2011 08:35 12,7 C 14,5 C 8,9 C 17,4 C 17,4 C 4,7 C 69 % 87 % 100 % 1014,5 hPa 0,0 l/m 1,0 km/h (0 Bft) SW 225 5 min 0,3 UV-I 7,2 C 17,4 C 2,1 km/h (1 Bft)
22.04.2011 08:40 12,8 C 14,4 C 9,1 C 17,5 C 17,5 C 4,7 C 69 % 86 % 100 % 1014,5 hPa 0,0 l/m 1,1 km/h (1 Bft) SW 225 5 min 0,3 UV-I 7,3 C 17,5 C 0,0 km/h (0 Bft)
22.04.2011 08:45 12,8 C 14,4 C 9,4 C 18,1 C 18,1 C 5,3 C 69 % 85 % 100 % 1014,5 hPa 0,0 l/m 0,8 km/h (0 Bft) SW 225 5 min 0,3 UV-I 7,3 C 18,1 C 1,6 km/h (1 Bft)
22.04.2011 08:50 12,9 C 14,4 C 9,6 C 18,7 C 18,7 C 5,8 C 68 % 84 % 100 % 1014,5 hPa 0,0 l/m 0,6 km/h (0 Bft) SW 225 5 min 0,3 UV-I 7,1 C 18,7 C 1,6 km/h (1 Bft)
22.04.2011 08:55 13,1 C 14,4 C 10,1 C 19,4 C 19,4 C 6,3 C 68 % 82 % 100 % 1014,6 hPa 0,0 l/m 1,0 km/h (0 Bft) S-SW 202 5 min 0,4 UV-I 7,3 C 19,4 C 1,9 km/h (1 Bft)
22.04.2011 09:00 13,1 C 14,4 C 10,3 C 19,9 C 19,9 C 6,8 C 68 % 82 % 100 % 1014,6 hPa 0,0 l/m 1,0 km/h (0 Bft) O-SO 112 5 min 0,4 UV-I 7,3 C 19,9 C 2,1 km/h (1 Bft)
22.04.2011 09:05 13,2 C 14,4 C 10,8 C 20,4 C 20,4 C 7,2 C 69 % 82 % 100 % 1014,6 hPa 0,0 l/m 1,3 km/h (1 Bft) S-SW 202 5 min 0,5 UV-I 7,6 C 20,4 C 2,6 km/h (1 Bft)
22.04.2011 09:10 13,3 C 14,3 C 11,5 C 20,5 C 20,5 C 7,2 C 69 % 81 % 100 % 1014,6 hPa 0,0 l/m 1,9 km/h (1 Bft) S-SW 202 5 min 0,5 UV-I 7,7 C 20,5 C 2,1 km/h (1 Bft)
22.04.2011 09:15 13,5 C 14,3 C 12,1 C 21,3 C 21,3 C 7,8 C 69 % 80 % 100 % 1014,5 hPa 0,0 l/m 1,3 km/h (1 Bft) S-SW 202 5 min 0,5 UV-I 7,9 C 21,3 C 3,1 km/h (1 Bft)
22.04.2011 09:20 13,6 C 14,3 C 12,5 C 20,8 C 20,8 C 7,2 C 69 % 79 % 100 % 1014,5 hPa 0,0 l/m 0,6 km/h (0 Bft) S 180 5 min 0,5 UV-I 8,0 C 20,8 C 1,9 km/h (1 Bft)
22.04.2011 09:25 13,9 C 14,4 C 13,2 C 19,5 C 19,5 C 5,6 C 69 % 78 % 100 % 1014,5 hPa 0,0 l/m 0,6 km/h (0 Bft) N 360 5 min 0,6 UV-I 8,3 C 19,5 C 0,0 km/h (0 Bft)
22.04.2011 09:30 14,0 C 14,4 C 13,9 C 19,3 C 19,3 C 5,3 C 69 % 78 % 100 % 1014,5 hPa 0,0 l/m 0,6 km/h (0 Bft) N 360 5 min 0,6 UV-I 8,4 C 19,3 C 0,0 km/h (0 Bft)
22.04.2011 09:35 14,4 C 14,4 C 14,5 C 19,0 C 19,0 C 4,6 C 70 % 76 % 100 % 1014,6 hPa 0,0 l/m 0,0 km/h (0 Bft) N-NO 22 5 min 0,7 UV-I 9,0 C 19,0 C 1,6 km/h (1 Bft)
22.04.2011 09:40 14,6 C 14,3 C 14,8 C 18,6 C 18,6 C 4,0 C 70 % 76 % 100 % 1014,6 hPa 0,0 l/m 0,3 km/h (0 Bft) NO 45 5 min 0,7 UV-I 9,2 C 18,6 C 0,0 km/h (0 Bft)
22.04.2011 09:45 15,1 C 14,4 C 15,6 C 18,7 C 18,7 C 3,6 C 69 % 73 % 95 % 1014,6 hPa 0,0 l/m 0,6 km/h (0 Bft) S-SW 202 5 min 0,7 UV-I 9,5 C 18,7 C 2,4 km/h (1 Bft)
22.04.2011 09:50 15,1 C 14,4 C 15,7 C 18,9 C 18,9 C 3,8 C 69 % 71 % 100 % 1014,6 hPa 0,0 l/m 0,6 km/h (0 Bft) S-SO 157 5 min 0,7 UV-I 9,5 C 18,9 C 0,0 km/h (0 Bft)
22.04.2011 09:55 15,5 C 14,4 C 15,9 C 18,8 C 18,8 C 3,3 C 69 % 73 % 87 % 1014,5 hPa 0,0 l/m 1,3 km/h (1 Bft) NW 315 5 min 0,8 UV-I 9,8 C 18,8 C 3,4 km/h (1 Bft)
22.04.2011 10:00 15,6 C 14,4 C 16,4 C 19,5 C 19,5 C 3,9 C 69 % 74 % 100 % 1014,5 hPa 0,0 l/m 1,1 km/h (1 Bft) O-NO 67 5 min 0,8 UV-I 9,9 C 19,5 C 1,9 km/h (1 Bft)
22.04.2011 10:05 16,1 C 14,3 C 17,7 C 19,8 C 19,8 C 3,7 C 68 % 69 % 97 % 1014,5 hPa 0,0 l/m 1,0 km/h (0 Bft) O 90 5 min 0,8 UV-I 10,2 C 19,8 C 4,2 km/h (1 Bft)
22.04.2011 10:10 16,4 C 14,3 C 18,0 C 19,9 C 19,9 C 3,5 C 67 % 68 % 92 % 1014,5 hPa 0,0 l/m 1,0 km/h (0 Bft) NO 45 5 min 0,8 UV-I 10,3 C 19,9 C 3,1 km/h (1 Bft)
22.04.2011 10:15 16,8 C 14,4 C 18,8 C 20,3 C 20,3 C 3,5 C 64 % 63 % 92 % 1014,2 hPa 0,0 l/m 2,1 km/h (1 Bft) O-NO 67 5 min 0,8 UV-I 10,0 C 20,3 C 6,9 km/h (2 Bft)
22.04.2011 10:20 17,2 C 14,3 C 19,1 C 20,3 C 20,3 C 3,1 C 63 % 62 % 82 % 1014,2 hPa 0,0 l/m 3,1 km/h (1 Bft) O-NO 67 0 min 0,8 UV-I 10,1 C 20,3 C 4,0 km/h (1 Bft)
22.04.2011 10:25 17,6 C 14,3 C 19,1 C 20,0 C 20,0 C 2,4 C 58 % 57 % 63 % 1014,2 hPa 0,0 l/m 4,3 km/h (1 Bft) O-NO 67 0 min 1,0 UV-I 9,2 C 20,0 C 10,3 km/h (2 Bft)
22.04.2011 10:30 17,9 C 14,4 C 18,9 C 19,9 C 19,9 C 2,0 C 58 % 58 % 53 % 1014,2 hPa 0,0 l/m 5,0 km/h (1 Bft) NO 45 0 min 1,0 UV-I 9,5 C 19,9 C 2,7 km/h (1 Bft)
22.04.2011 10:35 18,0 C 14,4 C 18,8 C 19,8 C 19,8 C 1,8 C 58 % 59 % 47 % 1013,8 hPa 0,0 l/m 3,7 km/h (1 Bft) O-NO 67 0 min 1,1 UV-I 9,6 C 19,8 C 5,0 km/h (1 Bft)
22.04.2011 10:40 18,3 C 14,4 C 18,8 C 19,8 C 19,8 C 1,5 C 58 % 59 % 39 % 1013,8 hPa 0,0 l/m 4,2 km/h (1 Bft) O-NO 67 0 min 1,1 UV-I 9,9 C 19,8 C 5,5 km/h (1 Bft)
22.04.2011 10:45 18,6 C 14,3 C 18,8 C 19,9 C 19,9 C 1,3 C 58 % 59 % 34 % 1013,8 hPa 0,0 l/m 4,7 km/h (1 Bft) O-NO 67 0 min 1,2 UV-I 10,2 C 19,9 C 4,0 km/h (1 Bft)
22.04.2011 10:50 18,9 C 14,5 C 18,9 C 20,2 C 20,2 C 1,3 C 58 % 60 % 34 % 1013,8 hPa 0,0 l/m 3,9 km/h (1 Bft) O-SO 112 0 min 1,2 UV-I 10,5 C 20,2 C 3,1 km/h (1 Bft)
22.04.2011 10:55 19,0 C 14,5 C 18,9 C 20,4 C 20,4 C 1,4 C 58 % 61 % 37 % 1014,0 hPa 0,0 l/m 2,6 km/h (1 Bft) O-NO 67 0 min 1,2 UV-I 10,5 C 20,4 C 5,3 km/h (1 Bft)
22.04.2011 11:00 19,1 C 14,5 C 19,1 C 20,5 C 20,5 C 1,4 C 57 % 60 % 37 % 1014,0 hPa 0,0 l/m 3,2 km/h (1 Bft) NO 45 0 min 1,2 UV-I 10,4 C 20,5 C 5,1 km/h (1 Bft)
22.04.2011 11:05 19,5 C 14,5 C 19,3 C 20,6 C 20,6 C 1,1 C 56 % 59 % 29 % 1014,0 hPa 0,0 l/m 3,4 km/h (1 Bft) O-NO 67 0 min 1,1 UV-I 10,5 C 20,6 C 2,6 km/h (1 Bft)
22.04.2011 11:10 19,5 C 14,5 C 19,2 C 20,8 C 20,8 C 1,3 C 56 % 58 % 34 % 1014,0 hPa 0,0 l/m 3,1 km/h (1 Bft) O-NO 67 0 min 1,1 UV-I 10,5 C 20,8 C 3,9 km/h (1 Bft)
22.04.2011 11:15 19,6 C 14,5 C 19,4 C 21,3 C 21,3 C 1,7 C 54 % 58 % 45 % 1013,8 hPa 0,0 l/m 3,2 km/h (1 Bft) NO 45 0 min 1,2 UV-I 10,0 C 21,3 C 5,3 km/h (1 Bft)
22.04.2011 11:20 19,9 C 14,5 C 19,4 C 21,5 C 21,5 C 1,6 C 53 % 56 % 42 % 1013,8 hPa 0,0 l/m 3,2 km/h (1 Bft) O-NO 67 0 min 1,2 UV-I 10,0 C 21,5 C 3,9 km/h (1 Bft)
22.04.2011 11:25 19,9 C 14,6 C 19,5 C 21,5 C 21,5 C 1,6 C 53 % 56 % 42 % 1013,8 hPa 0,0 l/m 3,7 km/h (1 Bft) O-NO 67 0 min 1,3 UV-I 10,0 C 21,5 C 11,1 km/h (2 Bft)
22.04.2011 11:30 20,0 C 14,5 C 19,6 C 21,5 C 21,5 C 1,5 C 53 % 56 % 39 % 1013,8 hPa 0,0 l/m 3,9 km/h (1 Bft) NO 45 0 min 1,3 UV-I 10,1 C 21,5 C 2,9 km/h (1 Bft)
22.04.2011 11:35 20,3 C 14,6 C 19,7 C 21,9 C 21,9 C 1,6 C 53 % 59 % 42 % 1013,7 hPa 0,0 l/m 3,7 km/h (1 Bft) N 360 0 min 1,5 UV-I 10,4 C 21,9 C 6,6 km/h (2 Bft)
22.04.2011 11:40 20,3 C 14,6 C 19,9 C 21,9 C 21,9 C 1,6 C 51 % 55 % 42 % 1013,7 hPa 0,0 l/m 3,9 km/h (1 Bft) O-NO 67 0 min 1,5 UV-I 9,8 C 21,9 C 7,7 km/h (2 Bft)
22.04.2011 11:45 20,5 C 14,7 C 20,8 C 22,0 C 22,0 C 1,5 C 52 % 54 % 39 % 1013,7 hPa 0,0 l/m 4,3 km/h (1 Bft) O-NO 67 0 min 1,4 UV-I 10,3 C 22,0 C 6,1 km/h (2 Bft)
22.04.2011 11:50 20,5 C 14,7 C 21,3 C 22,1 C 22,1 C 1,6 C 52 % 51 % 42 % 1013,7 hPa 0,0 l/m 3,9 km/h (1 Bft) NW 315 0 min 1,4 UV-I 10,3 C 22,1 C 1,8 km/h (1 Bft)
22.04.2011 11:55 20,7 C 14,7 C 22,0 C 22,1 C 22,1 C 1,4 C 50 % 49 % 37 % 1013,4 hPa 0,0 l/m 4,5 km/h (1 Bft) O-NO 67 0 min 1,5 UV-I 9,9 C 22,1 C 6,3 km/h (2 Bft)
22.04.2011 12:00 20,9 C 14,6 C 22,5 C 22,1 C 22,1 C 1,2 C 51 % 48 % 32 % 1013,4 hPa 0,0 l/m 5,3 km/h (1 Bft) NO 45 0 min 1,5 UV-I 10,4 C 22,1 C 5,3 km/h (1 Bft)
22.04.2011 12:05 21,0 C 14,7 C 22,7 C 22,3 C 22,3 C 1,3 C 52 % 50 % 34 % 1013,4 hPa 0,0 l/m 4,7 km/h (1 Bft) O-NO 67 0 min 1,5 UV-I 10,8 C 22,3 C 2,3 km/h (1 Bft)
22.04.2011 12:10 21,1 C 14,7 C 23,1 C 23,2 C 23,2 C 2,1 C 50 % 47 % 55 % 1013,4 hPa 0,0 l/m 3,9 km/h (1 Bft) O-NO 67 0 min 1,5 UV-I 10,3 C 23,2 C 4,5 km/h (1 Bft)
22.04.2011 12:15 21,3 C 14,8 C 23,0 C 24,5 C 24,5 C 3,2 C 51 % 48 % 84 % 1013,2 hPa 0,0 l/m 5,1 km/h (1 Bft) NO 45 0 min 1,6 UV-I 10,7 C 24,5 C 5,8 km/h (2 Bft)
22.04.2011 12:20 21,3 C 14,8 C 22,9 C 25,1 C 25,1 C 3,8 C 50 % 48 % 100 % 1013,2 hPa 0,0 l/m 5,0 km/h (1 Bft) O-NO 67 5 min 1,6 UV-I 10,4 C 25,1 C 2,7 km/h (1 Bft)
22.04.2011 12:25 21,3 C 14,9 C 22,7 C 25,5 C 25,5 C 4,2 C 50 % 49 % 100 % 1013,2 hPa 0,0 l/m 4,8 km/h (1 Bft) O-NO 67 5 min 2,4 UV-I 10,4 C 25,5 C 5,1 km/h (1 Bft)
22.04.2011 12:30 21,5 C 14,9 C 22,7 C 25,7 C 25,7 C 4,2 C 51 % 49 % 100 % 1013,2 hPa 0,0 l/m 4,2 km/h (1 Bft) SO 135 5 min 2,4 UV-I 10,9 C 25,7 C 3,4 km/h (1 Bft)
22.04.2011 12:35 21,6 C 14,9 C 22,7 C 26,2 C 26,2 C 4,6 C 50 % 49 % 100 % 1013,2 hPa 0,0 l/m 3,7 km/h (1 Bft) N-NO 22 5 min 2,6 UV-I 10,7 C 26,2 C 11,7 km/h (2 Bft)
22.04.2011 12:40 21,6 C 14,9 C 22,7 C 26,4 C 26,4 C 4,8 C 50 % 50 % 100 % 1013,2 hPa 0,0 l/m 3,7 km/h (1 Bft) O 90 5 min 2,6 UV-I 10,7 C 26,4 C 8,7 km/h (2 Bft)
22.04.2011 12:45 21,7 C 15,0 C 22,5 C 26,0 C 26,0 C 4,3 C 51 % 50 % 100 % 1013,2 hPa 0,0 l/m 5,3 km/h (1 Bft) O-NO 67 5 min 2,6 UV-I 11,1 C 26,0 C 13,2 km/h (3 Bft)
22.04.2011 12:50 21,6 C 15,0 C 22,6 C 25,9 C 25,9 C 4,3 C 50 % 49 % 100 % 1013,2 hPa 0,0 l/m 6,3 km/h (2 Bft) O-NO 67 5 min 2,6 UV-I 10,7 C 25,9 C 3,9 km/h (1 Bft)
22.04.2011 12:55 21,7 C 15,1 C 22,7 C 26,0 C 26,0 C 4,3 C 50 % 49 % 100 % 1013,1 hPa 0,0 l/m 5,3 km/h (1 Bft) O-NO 67 5 min 2,6 UV-I 10,8 C 26,0 C 9,5 km/h (2 Bft)
22.04.2011 13:00 21,8 C 15,1 C 23,1 C 25,9 C 25,9 C 4,1 C 50 % 49 % 100 % 1013,1 hPa 0,0 l/m 5,5 km/h (1 Bft) O-NO 67 5 min 2,6 UV-I 10,9 C 25,9 C 5,8 km/h (2 Bft)
22.04.2011 13:05 22,0 C 15,2 C 23,3 C 25,7 C 25,7 C 3,7 C 49 % 47 % 97 % 1013,1 hPa 0,0 l/m 6,8 km/h (2 Bft) O-NO 67 5 min 2,6 UV-I 10,8 C 25,7 C 5,6 km/h (1 Bft)
22.04.2011 13:10 22,0 C 15,2 C 23,3 C 25,9 C 25,9 C 3,9 C 49 % 48 % 100 % 1013,1 hPa 0,0 l/m 6,0 km/h (2 Bft) O 90 5 min 2,6 UV-I 10,8 C 25,9 C 8,5 km/h (2 Bft)
22.04.2011 13:15 22,0 C 15,3 C 23,4 C 26,1 C 26,1 C 4,1 C 49 % 47 % 100 % 1012,9 hPa 0,0 l/m 4,8 km/h (1 Bft) NO 45 5 min 2,6 UV-I 10,8 C 26,1 C 3,4 km/h (1 Bft)
22.04.2011 13:20 22,0 C 15,3 C 23,4 C 26,3 C 26,3 C 4,3 C 49 % 45 % 100 % 1012,9 hPa 0,0 l/m 5,0 km/h (1 Bft) NO 45 5 min 2,6 UV-I 10,8 C 26,3 C 5,1 km/h (1 Bft)
22.04.2011 13:25 22,0 C 15,4 C 23,6 C 26,2 C 26,2 C 4,2 C 50 % 48 % 100 % 1012,9 hPa 0,0 l/m 5,3 km/h (1 Bft) O-NO 67 5 min 2,6 UV-I 11,1 C 26,2 C 4,2 km/h (1 Bft)
22.04.2011 13:30 22,2 C 15,4 C 24,0 C 26,5 C 26,5 C 4,3 C 50 % 48 % 100 % 1012,9 hPa 0,0 l/m 5,1 km/h (1 Bft) O 90 5 min 2,6 UV-I 11,3 C 26,5 C 4,8 km/h (1 Bft)
22.04.2011 13:35 22,1 C 15,5 C 23,9 C 26,6 C 26,6 C 4,5 C 50 % 47 % 100 % 1012,6 hPa 0,0 l/m 4,5 km/h (1 Bft) N-NO 22 5 min 2,6 UV-I 11,2 C 26,6 C 4,8 km/h (1 Bft)
22.04.2011 13:40 22,3 C 15,5 C 24,0 C 26,9 C 26,9 C 4,6 C 50 % 49 % 100 % 1012,6 hPa 0,0 l/m 4,5 km/h (1 Bft) NW 315 5 min 2,6 UV-I 11,4 C 26,9 C 5,6 km/h (1 Bft)
22.04.2011 13:45 22,5 C 15,5 C 24,2 C 27,4 C 27,4 C 4,9 C 49 % 47 % 100 % 1012,6 hPa 0,0 l/m 3,9 km/h (1 Bft) O-NO 67 5 min 2,6 UV-I 11,2 C 27,4 C 4,2 km/h (1 Bft)
22.04.2011 13:50 22,5 C 15,6 C 24,2 C 27,5 C 27,5 C 5,0 C 49 % 46 % 100 % 1012,6 hPa 0,0 l/m 3,9 km/h (1 Bft) NO 45 5 min 2,6 UV-I 11,2 C 27,5 C 3,2 km/h (1 Bft)
22.04.2011 13:55 22,5 C 15,5 C 24,5 C 27,2 C 27,2 C 4,7 C 50 % 47 % 100 % 1012,6 hPa 0,0 l/m 5,1 km/h (1 Bft) O-NO 67 5 min 2,5 UV-I 11,5 C 27,2 C 4,5 km/h (1 Bft)
22.04.2011 14:00 22,4 C 15,6 C 24,4 C 26,7 C 26,7 C 4,3 C 50 % 48 % 100 % 1012,6 hPa 0,0 l/m 6,8 km/h (2 Bft) O-NO 67 5 min 2,5 UV-I 11,5 C 26,7 C 11,3 km/h (2 Bft)
22.04.2011 14:05 22,4 C 15,6 C 24,5 C 26,4 C 26,4 C 4,0 C 51 % 47 % 100 % 1012,6 hPa 0,0 l/m 5,8 km/h (2 Bft) NO 45 5 min 2,5 UV-I 11,8 C 26,4 C 3,9 km/h (1 Bft)
22.04.2011 14:10 22,6 C 15,7 C 25,1 C 27,0 C 27,0 C 4,4 C 50 % 46 % 100 % 1012,6 hPa 0,0 l/m 4,5 km/h (1 Bft) O 90 5 min 2,5 UV-I 11,6 C 27,0 C 3,5 km/h (1 Bft)
22.04.2011 14:15 22,7 C 15,7 C 26,0 C 27,6 C 27,6 C 4,9 C 50 % 45 % 100 % 1012,9 hPa 0,0 l/m 3,4 km/h (1 Bft) NO 45 5 min 2,4 UV-I 11,7 C 27,6 C 4,7 km/h (1 Bft)
22.04.2011 14:20 22,9 C 15,7 C 25,9 C 27,7 C 27,7 C 4,8 C 50 % 44 % 100 % 1012,9 hPa 0,0 l/m 3,7 km/h (1 Bft) W-SW 247 5 min 2,4 UV-I 11,9 C 27,7 C 5,3 km/h (1 Bft)
22.04.2011 14:25 22,9 C 15,8 C 26,2 C 27,7 C 27,7 C 4,8 C 49 % 44 % 100 % 1012,9 hPa 0,0 l/m 4,5 km/h (1 Bft) NO 45 5 min 2,4 UV-I 11,6 C 27,7 C 4,5 km/h (1 Bft)
22.04.2011 14:30 23,1 C 15,8 C 26,4 C 27,5 C 27,5 C 4,4 C 47 % 41 % 100 % 1012,9 hPa 0,0 l/m 5,1 km/h (1 Bft) O-NO 67 5 min 2,4 UV-I 11,2 C 27,5 C 7,7 km/h (2 Bft)
22.04.2011 14:35 23,1 C 15,9 C 26,4 C 27,3 C 27,3 C 4,2 C 48 % 43 % 100 % 1012,6 hPa 0,0 l/m 5,5 km/h (1 Bft) N-NO 22 5 min 2,3 UV-I 11,5 C 27,3 C 5,8 km/h (2 Bft)
22.04.2011 14:40 23,1 C 15,9 C 26,6 C 27,4 C 27,4 C 4,3 C 48 % 42 % 100 % 1012,6 hPa 0,0 l/m 5,1 km/h (1 Bft) O-NO 67 5 min 2,3 UV-I 11,5 C 27,4 C 6,4 km/h (2 Bft)
22.04.2011 14:45 23,1 C 16,0 C 26,5 C 27,4 C 27,4 C 4,3 C 47 % 42 % 100 % 1012,6 hPa 0,0 l/m 5,3 km/h (1 Bft) O-NO 67 5 min 2,2 UV-I 11,2 C 27,4 C 6,1 km/h (2 Bft)
22.04.2011 14:50 23,3 C 16,0 C 26,7 C 27,3 C 27,3 C 4,0 C 47 % 41 % 100 % 1012,6 hPa 0,0 l/m 5,6 km/h (1 Bft) O-NO 67 5 min 2,2 UV-I 11,3 C 27,3 C 7,1 km/h (2 Bft)
22.04.2011 14:55 23,3 C 16,1 C 26,6 C 26,9 C 26,9 C 3,6 C 45 % 39 % 95 % 1012,1 hPa 0,0 l/m 6,8 km/h (2 Bft) O-NO 67 5 min 1,9 UV-I 10,7 C 26,9 C 6,3 km/h (2 Bft)
22.04.2011 15:00 23,3 C 16,1 C 26,6 C 26,8 C 26,8 C 3,5 C 44 % 39 % 92 % 1012,1 hPa 0,0 l/m 7,4 km/h (2 Bft) O-NO 67 5 min 1,9 UV-I 10,4 C 26,8 C 9,0 km/h (2 Bft)
22.04.2011 15:05 23,5 C 16,2 C 26,7 C 26,8 C 26,8 C 3,3 C 46 % 40 % 87 % 1012,1 hPa 0,0 l/m 7,1 km/h (2 Bft) O-SO 112 5 min 1,9 UV-I 11,2 C 26,8 C 6,9 km/h (2 Bft)
22.04.2011 15:10 23,5 C 16,3 C 26,9 C 27,0 C 27,0 C 3,5 C 45 % 40 % 92 % 1012,1 hPa 0,0 l/m 6,3 km/h (2 Bft) N 360 5 min 1,9 UV-I 10,9 C 27,0 C 3,2 km/h (1 Bft)
22.04.2011 15:15 23,5 C 16,3 C 26,9 C 27,5 C 27,5 C 4,0 C 44 % 38 % 100 % 1012,1 hPa 0,0 l/m 4,8 km/h (1 Bft) O-NO 67 5 min 1,8 UV-I 10,5 C 27,5 C 5,1 km/h (1 Bft)
22.04.2011 15:20 23,6 C 16,4 C 26,8 C 27,7 C 27,7 C 4,1 C 44 % 39 % 100 % 1012,1 hPa 0,0 l/m 4,2 km/h (1 Bft) O-NO 67 5 min 1,8 UV-I 10,6 C 27,7 C 3,1 km/h (1 Bft)
22.04.2011 15:25 23,7 C 16,4 C 26,9 C 27,7 C 27,7 C 4,0 C 44 % 37 % 100 % 1012,1 hPa 0,0 l/m 4,5 km/h (1 Bft) NO 45 5 min 1,6 UV-I 10,7 C 27,7 C 5,5 km/h (1 Bft)
22.04.2011 15:30 23,7 C 16,5 C 26,9 C 27,9 C 27,9 C 4,2 C 43 % 38 % 100 % 1012,1 hPa 0,0 l/m 4,7 km/h (1 Bft) S-SO 157 5 min 1,6 UV-I 10,4 C 27,9 C 3,4 km/h (1 Bft)
22.04.2011 15:35 23,8 C 16,5 C 26,8 C 28,0 C 28,0 C 4,2 C 44 % 39 % 100 % 1011,7 hPa 0,0 l/m 4,7 km/h (1 Bft) N-NO 22 5 min 1,5 UV-I 10,8 C 28,0 C 7,1 km/h (2 Bft)
22.04.2011 15:40 24,0 C 16,6 C 26,7 C 27,7 C 27,7 C 3,7 C 42 % 38 % 97 % 1011,7 hPa 0,0 l/m 5,6 km/h (1 Bft) NO 45 5 min 1,5 UV-I 10,3 C 27,7 C 9,3 km/h (2 Bft)
22.04.2011 15:45 24,0 C 16,6 C 26,9 C 27,5 C 27,5 C 3,5 C 40 % 37 % 92 % 1011,7 hPa 0,0 l/m 6,6 km/h (2 Bft) O-NO 67 5 min 1,5 UV-I 9,6 C 27,5 C 6,6 km/h (2 Bft)
22.04.2011 15:50 24,0 C 16,7 C 26,9 C 27,5 C 27,5 C 3,5 C 38 % 37 % 92 % 1011,7 hPa 0,0 l/m 6,0 km/h (2 Bft) O-NO 67 5 min 1,5 UV-I 8,8 C 27,5 C 8,9 km/h (2 Bft)
22.04.2011 15:55 24,3 C 16,7 C 26,9 C 27,7 C 27,7 C 3,4 C 37 % 35 % 89 % 1011,8 hPa 0,0 l/m 4,8 km/h (1 Bft) O-NO 67 5 min 1,4 UV-I 8,7 C 27,7 C 3,4 km/h (1 Bft)
22.04.2011 16:00 24,2 C 16,8 C 26,8 C 27,8 C 27,8 C 3,6 C 36 % 31 % 95 % 1011,8 hPa 0,0 l/m 5,3 km/h (1 Bft) NO 45 5 min 1,4 UV-I 8,2 C 27,8 C 6,1 km/h (2 Bft)
22.04.2011 16:05 24,2 C 16,8 C 26,5 C 27,5 C 27,5 C 3,3 C 35 % 32 % 87 % 1011,8 hPa 0,0 l/m 6,4 km/h (2 Bft) O-NO 67 5 min 1,2 UV-I 7,8 C 27,5 C 7,9 km/h (2 Bft)
22.04.2011 16:10 24,2 C 16,9 C 26,5 C 27,4 C 27,4 C 3,2 C 33 % 31 % 84 % 1011,8 hPa 0,0 l/m 7,4 km/h (2 Bft) O-NO 67 0 min 1,2 UV-I 6,9 C 27,4 C 9,5 km/h (2 Bft)
22.04.2011 16:15 24,3 C 16,9 C 26,3 C 27,2 C 27,2 C 2,9 C 34 % 34 % 76 % 1011,4 hPa 0,0 l/m 7,7 km/h (2 Bft) NO 45 0 min 1,1 UV-I 7,4 C 27,2 C 14,3 km/h (3 Bft)
22.04.2011 16:20 24,3 C 17,0 C 26,2 C 27,2 C 27,2 C 2,9 C 35 % 34 % 76 % 1011,4 hPa 0,0 l/m 6,6 km/h (2 Bft) O-NO 67 0 min 1,1 UV-I 7,8 C 27,2 C 4,3 km/h (1 Bft)
22.04.2011 16:25 24,3 C 17,0 C 26,1 C 27,4 C 27,4 C 3,1 C 33 % 31 % 82 % 1011,4 hPa 0,0 l/m 6,0 km/h (2 Bft) NO 45 0 min 1,0 UV-I 7,0 C 27,4 C 11,1 km/h (2 Bft)
22.04.2011 16:30 24,4 C 17,1 C 25,9 C 27,4 C 27,4 C 3,0 C 34 % 34 % 79 % 1011,4 hPa 0,0 l/m 5,8 km/h (2 Bft) O-NO 67 0 min 1,0 UV-I 7,5 C 27,4 C 4,8 km/h (1 Bft)
22.04.2011 16:35 24,4 C 17,2 C 25,9 C 27,4 C 27,4 C 3,0 C 34 % 33 % 79 % 1011,6 hPa 0,0 l/m 5,5 km/h (1 Bft) O 90 0 min 0,9 UV-I 7,5 C 27,4 C 2,7 km/h (1 Bft)
22.04.2011 16:40 24,4 C 17,2 C 25,9 C 27,7 C 27,7 C 3,3 C 34 % 35 % 87 % 1011,6 hPa 0,0 l/m 4,2 km/h (1 Bft) NO 45 5 min 0,9 UV-I 7,5 C 27,7 C 8,4 km/h (2 Bft)
22.04.2011 16:45 24,5 C 17,3 C 25,7 C 27,7 C 27,7 C 3,2 C 34 % 35 % 84 % 1011,6 hPa 0,0 l/m 4,2 km/h (1 Bft) O-NO 67 0 min 0,8 UV-I 7,6 C 27,7 C 9,0 km/h (2 Bft)
22.04.2011 16:50 24,5 C 17,3 C 25,4 C 27,4 C 27,4 C 2,9 C 34 % 35 % 76 % 1011,6 hPa 0,0 l/m 6,8 km/h (2 Bft) NO 45 0 min 0,8 UV-I 7,6 C 27,4 C 14,5 km/h (3 Bft)
22.04.2011 16:55 24,3 C 17,4 C 25,2 C 26,7 C 26,7 C 2,4 C 32 % 33 % 63 % 1011,6 hPa 0,0 l/m 9,7 km/h (2 Bft) O-NO 67 0 min 0,6 UV-I 6,5 C 26,7 C 16,6 km/h (3 Bft)
22.04.2011 17:00 24,3 C 17,4 C 25,0 C 26,4 C 26,4 C 2,1 C 33 % 33 % 55 % 1011,6 hPa 0,0 l/m 10,5 km/h (2 Bft) NO 45 0 min 0,6 UV-I 7,0 C 26,4 C 12,9 km/h (3 Bft)
22.04.2011 17:05 24,4 C 17,4 C 25,0 C 26,3 C 26,3 C 1,9 C 34 % 35 % 50 % 1011,6 hPa 0,0 l/m 9,5 km/h (2 Bft) O-NO 67 0 min 0,5 UV-I 7,5 C 26,3 C 7,6 km/h (2 Bft)
22.04.2011 17:10 24,4 C 17,4 C 25,0 C 26,5 C 26,5 C 2,1 C 34 % 36 % 55 % 1011,6 hPa 0,0 l/m 7,9 km/h (2 Bft) O-NO 67 0 min 0,5 UV-I 7,5 C 26,5 C 6,4 km/h (2 Bft)
22.04.2011 17:15 24,5 C 17,5 C 25,1 C 26,7 C 26,7 C 2,2 C 34 % 36 % 58 % 1011,6 hPa 0,0 l/m 5,8 km/h (2 Bft) O-NO 67 0 min 0,4 UV-I 7,6 C 26,7 C 16,7 km/h (3 Bft)
22.04.2011 17:20 24,5 C 17,5 C 24,9 C 26,6 C 26,6 C 2,1 C 34 % 36 % 55 % 1011,6 hPa 0,0 l/m 6,9 km/h (2 Bft) O-NO 67 0 min 0,4 UV-I 7,6 C 26,6 C 8,9 km/h (2 Bft)
22.04.2011 17:25 24,4 C 17,5 C 24,9 C 26,3 C 26,3 C 1,9 C 33 % 35 % 50 % 1011,6 hPa 0,0 l/m 8,5 km/h (2 Bft) O-NO 67 0 min 0,4 UV-I 7,1 C 26,3 C 10,0 km/h (2 Bft)
22.04.2011 17:30 24,5 C 17,5 C 24,6 C 26,2 C 26,2 C 1,7 C 33 % 35 % 45 % 1011,6 hPa 0,0 l/m 8,0 km/h (2 Bft) O-NO 67 0 min 0,4 UV-I 7,2 C 26,2 C 7,9 km/h (2 Bft)
22.04.2011 17:35 24,4 C 17,6 C 24,5 C 26,3 C 26,3 C 1,9 C 33 % 36 % 50 % 1011,7 hPa 0,0 l/m 6,6 km/h (2 Bft) O-NO 67 0 min 0,3 UV-I 7,1 C 26,3 C 5,8 km/h (2 Bft)
22.04.2011 17:40 24,4 C 17,6 C 24,5 C 26,3 C 26,3 C 1,9 C 33 % 34 % 50 % 1011,7 hPa 0,0 l/m 6,3 km/h (2 Bft) O-NO 67 0 min 0,3 UV-I 7,1 C 26,3 C 9,3 km/h (2 Bft)
22.04.2011 17:45 24,5 C 17,6 C 24,5 C 26,4 C 26,4 C 1,9 C 34 % 36 % 50 % 1011,7 hPa 0,0 l/m 5,8 km/h (2 Bft) N-NO 22 0 min 0,3 UV-I 7,6 C 26,4 C 7,7 km/h (2 Bft)
22.04.2011 17:50 24,4 C 17,6 C 24,4 C 26,3 C 26,3 C 1,9 C 32 % 33 % 50 % 1011,7 hPa 0,0 l/m 6,0 km/h (2 Bft) O 90 0 min 0,3 UV-I 6,6 C 26,3 C 4,5 km/h (1 Bft)
22.04.2011 17:55 24,3 C 17,6 C 24,4 C 26,3 C 26,3 C 2,0 C 33 % 34 % 53 % 1011,8 hPa 0,0 l/m 6,1 km/h (2 Bft) O-NO 67 0 min 0,2 UV-I 7,0 C 26,3 C 7,9 km/h (2 Bft)
22.04.2011 18:00 24,3 C 17,6 C 24,3 C 26,2 C 26,2 C 1,9 C 33 % 35 % 50 % 1011,8 hPa 0,0 l/m 6,1 km/h (2 Bft) N-NO 22 0 min 0,2 UV-I 7,0 C 26,2 C 4,8 km/h (1 Bft)
22.04.2011 18:05 24,3 C 17,6 C 24,1 C 26,1 C 26,1 C 1,8 C 33 % 36 % 47 % 1011,8 hPa 0,0 l/m 6,0 km/h (2 Bft) O-NO 67 0 min 0,2 UV-I 7,0 C 26,1 C 3,9 km/h (1 Bft)
22.04.2011 18:10 24,3 C 17,7 C 24,1 C 26,1 C 26,1 C 1,8 C 33 % 36 % 47 % 1011,8 hPa 0,0 l/m 5,0 km/h (1 Bft) O-NO 67 0 min 0,2 UV-I 7,0 C 26,1 C 4,5 km/h (1 Bft)
22.04.2011 18:15 24,2 C 17,7 C 24,0 C 26,2 C 26,2 C 2,0 C 34 % 37 % 53 % 1011,8 hPa 0,0 l/m 4,8 km/h (1 Bft) O-NO 67 0 min 0,1 UV-I 7,3 C 26,2 C 6,6 km/h (2 Bft)
22.04.2011 18:20 24,1 C 17,7 C 23,9 C 26,0 C 26,0 C 1,9 C 34 % 37 % 50 % 1011,8 hPa 0,0 l/m 5,8 km/h (2 Bft) NO 45 0 min 0,1 UV-I 7,2 C 26,0 C 5,3 km/h (1 Bft)
22.04.2011 18:25 24,0 C 17,7 C 23,9 C 25,4 C 25,4 C 1,4 C 36 % 38 % 37 % 1011,8 hPa 0,0 l/m 6,9 km/h (2 Bft) NO 45 0 min 0,1 UV-I 8,0 C 25,4 C 7,9 km/h (2 Bft)
22.04.2011 18:30 23,9 C 17,7 C 23,6 C 25,3 C 25,3 C 1,4 C 37 % 38 % 37 % 1011,8 hPa 0,0 l/m 6,1 km/h (2 Bft) NO 45 0 min 0,1 UV-I 8,3 C 25,3 C 6,3 km/h (2 Bft)
22.04.2011 18:35 23,8 C 17,7 C 23,5 C 25,1 C 25,1 C 1,3 C 38 % 39 % 34 % 1011,8 hPa 0,0 l/m 5,6 km/h (1 Bft) O-NO 67 0 min 0,1 UV-I 8,6 C 25,1 C 4,2 km/h (1 Bft)
22.04.2011 18:40 23,7 C 17,7 C 23,4 C 24,9 C 24,9 C 1,2 C 38 % 40 % 32 % 1011,8 hPa 0,0 l/m 5,6 km/h (1 Bft) O-NO 67 0 min 0,1 UV-I 8,5 C 24,9 C 7,4 km/h (2 Bft)
22.04.2011 18:45 23,5 C 17,8 C 23,2 C 24,6 C 24,6 C 1,1 C 39 % 40 % 29 % 1011,8 hPa 0,0 l/m 5,5 km/h (1 Bft) O-NO 67 0 min 0,0 UV-I 8,7 C 24,6 C 4,7 km/h (1 Bft)
22.04.2011 18:50 23,3 C 17,8 C 23,0 C 24,5 C 24,5 C 1,2 C 39 % 41 % 32 % 1011,8 hPa 0,0 l/m 5,3 km/h (1 Bft) O-NO 67 0 min 0,0 UV-I 8,6 C 24,5 C 4,7 km/h (1 Bft)
22.04.2011 18:55 23,2 C 17,8 C 23,1 C 24,2 C 24,2 C 1,0 C 39 % 41 % 26 % 1011,4 hPa 0,0 l/m 4,3 km/h (1 Bft) O 90 0 min 0,0 UV-I 8,5 C 24,2 C 5,6 km/h (1 Bft)
22.04.2011 19:00 23,1 C 17,8 C 23,0 C 24,1 C 24,1 C 1,0 C 39 % 40 % 26 % 1011,4 hPa 0,0 l/m 4,3 km/h (1 Bft) O-NO 67 0 min 0,0 UV-I 8,4 C 24,1 C 6,1 km/h (2 Bft)
22.04.2011 19:05 23,1 C 17,8 C 22,9 C 23,8 C 23,8 C 0,7 C 39 % 40 % 18 % 1011,4 hPa 0,0 l/m 5,3 km/h (1 Bft) O-NO 67 0 min 0,0 UV-I 8,4 C 23,8 C 5,6 km/h (1 Bft)
22.04.2011 19:10 22,9 C 17,8 C 22,7 C 23,5 C 23,5 C 0,6 C 39 % 41 % 16 % 1011,4 hPa 0,0 l/m 5,5 km/h (1 Bft) NO 45 0 min 0,0 UV-I 8,2 C 23,5 C 4,3 km/h (1 Bft)
22.04.2011 19:15 22,8 C 17,8 C 22,4 C 23,2 C 23,2 C 0,4 C 40 % 42 % 11 % 1011,6 hPa 0,0 l/m 4,7 km/h (1 Bft) O-NO 67 0 min 0,0 UV-I 8,5 C 23,2 C 4,3 km/h (1 Bft)
22.04.2011 19:20 22,6 C 17,9 C 22,3 C 22,9 C 22,9 C 0,3 C 40 % 42 % 8 % 1011,6 hPa 0,0 l/m 4,0 km/h (1 Bft) O-NO 67 0 min 0,0 UV-I 8,3 C 22,9 C 4,5 km/h (1 Bft)
22.04.2011 19:25 22,4 C 17,9 C 22,0 C 22,6 C 22,6 C 0,2 C 41 % 43 % 5 % 1011,6 hPa 0,0 l/m 3,5 km/h (1 Bft) NO 45 0 min 0,0 UV-I 8,5 C 22,6 C 4,5 km/h (1 Bft)
22.04.2011 19:30 22,2 C 17,9 C 22,0 C 22,3 C 22,3 C 0,1 C 41 % 43 % 3 % 1011,6 hPa 0,0 l/m 3,9 km/h (1 Bft) NO 45 0 min 0,0 UV-I 8,3 C 22,3 C 6,9 km/h (2 Bft)
22.04.2011 19:35 22,1 C 17,9 C 21,5 C 22,1 C 22,0 C 0,0 C 42 % 44 % 0 % 1011,8 hPa 0,0 l/m 4,2 km/h (1 Bft) O-NO 67 0 min 0,0 UV-I 8,6 C 22,0 C 4,0 km/h (1 Bft)
22.04.2011 19:40 21,8 C 17,9 C 21,3 C 21,8 C 21,8 C 0,0 C 42 % 44 % 0 % 1011,8 hPa 0,0 l/m 4,2 km/h (1 Bft) NO 45 0 min 0,0 UV-I 8,3 C 21,8 C 4,7 km/h (1 Bft)
22.04.2011 19:45 21,6 C 17,9 C 21,1 C 21,5 C 21,3 C 0,0 C 43 % 45 % 0 % 1011,8 hPa 0,0 l/m 3,7 km/h (1 Bft) O-NO 67 0 min 0,0 UV-I 8,5 C 21,3 C 4,0 km/h (1 Bft)
22.04.2011 19:50 21,4 C 17,9 C 20,8 C 21,3 C 21,1 C 0,0 C 43 % 46 % 0 % 1011,8 hPa 0,0 l/m 3,4 km/h (1 Bft) O-NO 67 0 min 0,0 UV-I 8,3 C 21,1 C 3,2 km/h (1 Bft)
22.04.2011 19:55 21,2 C 17,9 C 20,7 C 20,9 C 20,4 C 0,0 C 43 % 46 % 0 % 1011,8 hPa 0,0 l/m 3,1 km/h (1 Bft) O-NO 67 0 min 0,0 UV-I 8,1 C 20,4 C 3,2 km/h (1 Bft)
22.04.2011 20:00 21,1 C 17,9 C 20,5 C 20,7 C 20,0 C 0,0 C 44 % 46 % 0 % 1011,8 hPa 0,0 l/m 2,9 km/h (1 Bft) O-NO 67 0 min 0,0 UV-I 8,4 C 20,0 C 2,9 km/h (1 Bft)
22.04.2011 20:05 20,9 C 17,9 C 20,0 C 20,4 C 19,5 C 0,0 C 45 % 48 % 0 % 1011,8 hPa 0,0 l/m 2,4 km/h (1 Bft) NO 45 0 min 0,0 UV-I 8,5 C 19,5 C 1,6 km/h (1 Bft)
22.04.2011 20:10 20,7 C 17,8 C 19,7 C 20,1 C 18,9 C 0,0 C 46 % 50 % 0 % 1011,8 hPa 0,0 l/m 1,9 km/h (1 Bft) O-NO 67 0 min 0,0 UV-I 8,7 C 18,9 C 1,9 km/h (1 Bft)
22.04.2011 20:15 20,3 C 17,8 C 19,2 C 19,7 C 18,4 C 0,0 C 46 % 50 % 0 % 1011,8 hPa 0,0 l/m 1,9 km/h (1 Bft) O-NO 67 0 min 0,0 UV-I 8,3 C 18,4 C 1,9 km/h (1 Bft)
22.04.2011 20:20 20,3 C 17,8 C 19,3 C 19,6 C 18,1 C 0,0 C 46 % 50 % 0 % 1011,8 hPa 0,0 l/m 2,3 km/h (1 Bft) O-NO 67 0 min 0,0 UV-I 8,3 C 18,1 C 1,6 km/h (1 Bft)
22.04.2011 20:25 19,9 C 17,8 C 18,7 C 19,2 C 17,8 C 0,0 C 47 % 52 % 0 % 1011,8 hPa 0,0 l/m 1,1 km/h (1 Bft) O-NO 67 0 min 0,0 UV-I 8,3 C 17,8 C 0,0 km/h (0 Bft)
22.04.2011 20:30 19,7 C 17,9 C 18,4 C 18,9 C 17,4 C 0,0 C 48 % 53 % 0 % 1011,8 hPa 0,0 l/m 0,5 km/h (0 Bft) NO 45 0 min 0,0 UV-I 8,4 C 17,4 C 0,0 km/h (0 Bft)
22.04.2011 20:35 19,1 C 17,9 C 17,9 C 18,4 C 16,9 C 0,0 C 51 % 56 % 0 % 1011,9 hPa 0,0 l/m 0,2 km/h (0 Bft) O-NO 67 0 min 0,0 UV-I 8,7 C 16,9 C 0,0 km/h (0 Bft)
22.04.2011 20:40 19,1 C 17,9 C 17,6 C 18,2 C 16,5 C 0,0 C 52 % 56 % 0 % 1011,9 hPa 0,0 l/m 0,0 km/h (0 Bft) NO 45 0 min 0,0 UV-I 9,0 C 16,5 C 0,0 km/h (0 Bft)
22.04.2011 20:45 18,7 C 17,8 C 17,3 C 17,8 C 15,9 C 0,0 C 53 % 57 % 0 % 1011,9 hPa 0,0 l/m 0,0 km/h (0 Bft) O 90 0 min 0,0 UV-I 8,9 C 15,9 C 0,0 km/h (0 Bft)
22.04.2011 20:50 18,6 C 17,8 C 17,0 C 17,6 C 15,5 C 0,0 C 53 % 58 % 0 % 1011,9 hPa 0,0 l/m 0,0 km/h (0 Bft) O 90 0 min 0,0 UV-I 8,8 C 15,5 C 0,0 km/h (0 Bft)
22.04.2011 20:55 18,5 C 17,8 C 16,6 C 17,3 C 15,0 C 0,0 C 53 % 60 % 0 % 1012,2 hPa 0,0 l/m 0,0 km/h (0 Bft) O-NO 67 0 min 0,0 UV-I 8,7 C 15,0 C 0,0 km/h (0 Bft)
22.04.2011 21:00 18,2 C 17,8 C 16,5 C 17,1 C 14,9 C 0,0 C 54 % 61 % 0 % 1012,2 hPa 0,0 l/m 0,0 km/h (0 Bft) NO 45 0 min 0,0 UV-I 8,7 C 14,9 C 0,0 km/h (0 Bft)
22.04.2011 21:05 17,9 C 17,8 C 16,0 C 16,8 C 14,6 C 0,0 C 55 % 61 % 0 % 1012,2 hPa 0,0 l/m 0,0 km/h (0 Bft) O-NO 67 0 min 0,0 UV-I 8,7 C 14,6 C 1,8 km/h (1 Bft)
22.04.2011 21:10 17,7 C 17,8 C 15,9 C 16,6 C 14,5 C 0,0 C 56 % 62 % 0 % 1012,2 hPa 0,0 l/m 0,2 km/h (0 Bft) O-NO 67 0 min 0,0 UV-I 8,8 C 14,5 C 0,0 km/h (0 Bft)
22.04.2011 21:15 17,6 C 17,8 C 15,6 C 16,4 C 14,0 C 0,0 C 57 % 64 % 0 % 1012,3 hPa 0,0 l/m 0,2 km/h (0 Bft) O-NO 67 0 min 0,0 UV-I 9,0 C 14,0 C 0,0 km/h (0 Bft)
22.04.2011 21:20 17,4 C 17,8 C 15,5 C 16,2 C 13,8 C 0,0 C 56 % 63 % 0 % 1012,3 hPa 0,0 l/m 0,0 km/h (0 Bft) O-NO 67 0 min 0,0 UV-I 8,5 C 13,8 C 0,0 km/h (0 Bft)
22.04.2011 21:25 17,3 C 17,8 C 15,2 C 16,0 C 13,5 C 0,0 C 58 % 64 % 0 % 1012,3 hPa 0,0 l/m 0,0 km/h (0 Bft) O-NO 67 0 min 0,0 UV-I 9,0 C 13,5 C 0,0 km/h (0 Bft)
22.04.2011 21:30 17,2 C 17,8 C 15,0 C 15,9 C 13,2 C 0,0 C 58 % 64 % 0 % 1012,3 hPa 0,0 l/m 0,0 km/h (0 Bft) O-NO 67 0 min 0,0 UV-I 8,9 C 13,2 C 0,0 km/h (0 Bft)
22.04.2011 21:35 17,1 C 17,8 C 14,9 C 15,7 C 12,9 C 0,0 C 59 % 67 % 0 % 1012,2 hPa 0,0 l/m 0,0 km/h (0 Bft) S 180 0 min 0,0 UV-I 9,0 C 12,9 C 0,0 km/h (0 Bft)
22.04.2011 21:40 16,9 C 17,8 C 14,7 C 15,5 C 12,8 C 0,0 C 58 % 66 % 0 % 1012,2 hPa 0,0 l/m 0,0 km/h (0 Bft) O-NO 67 0 min 0,0 UV-I 8,6 C 12,8 C 0,0 km/h (0 Bft)
22.04.2011 21:45 16,6 C 17,7 C 14,5 C 15,3 C 12,7 C 0,0 C 60 % 68 % 0 % 1012,2 hPa 0,0 l/m 0,0 km/h (0 Bft) O-NO 67 0 min 0,0 UV-I 8,8 C 12,7 C 0,0 km/h (0 Bft)
22.04.2011 21:50 16,7 C 17,7 C 14,3 C 15,3 C 12,4 C 0,0 C 61 % 68 % 0 % 1012,2 hPa 0,0 l/m 0,0 km/h (0 Bft) SW 225 0 min 0,0 UV-I 9,1 C 12,4 C 0,0 km/h (0 Bft)
22.04.2011 21:55 16,5 C 17,7 C 14,1 C 15,0 C 12,1 C 0,0 C 61 % 69 % 0 % 1012,3 hPa 0,0 l/m 0,0 km/h (0 Bft) SW 225 0 min 0,0 UV-I 9,0 C 12,1 C 0,0 km/h (0 Bft)
22.04.2011 22:00 16,3 C 17,7 C 14,0 C 14,8 C 11,9 C 0,0 C 61 % 69 % 0 % 1012,3 hPa 0,0 l/m 0,0 km/h (0 Bft) W-SW 247 0 min 0,0 UV-I 8,8 C 11,9 C 0,0 km/h (0 Bft)
22.04.2011 22:05 16,2 C 17,7 C 13,9 C 14,7 C 11,7 C 0,0 C 63 % 71 % 0 % 1012,3 hPa 0,0 l/m 0,0 km/h (0 Bft) S 180 0 min 0,0 UV-I 9,1 C 11,7 C 0,0 km/h (0 Bft)
22.04.2011 22:10 16,3 C 17,7 C 13,8 C 14,8 C 11,7 C 0,0 C 63 % 72 % 0 % 1012,3 hPa 0,0 l/m 0,0 km/h (0 Bft) W-SW 247 0 min 0,0 UV-I 9,2 C 11,7 C 0,0 km/h (0 Bft)
22.04.2011 22:15 16,0 C 17,7 C 13,6 C 14,6 C 11,7 C 0,0 C 63 % 72 % 0 % 1012,3 hPa 0,0 l/m 0,2 km/h (0 Bft) NW 315 0 min 0,0 UV-I 9,0 C 11,7 C 0,0 km/h (0 Bft)
22.04.2011 22:20 15,9 C 17,6 C 13,4 C 14,5 C 11,8 C 0,0 C 63 % 73 % 0 % 1012,3 hPa 0,0 l/m 0,2 km/h (0 Bft) W 270 0 min 0,0 UV-I 8,9 C 11,8 C 0,0 km/h (0 Bft)
22.04.2011 22:25 15,8 C 17,6 C 13,2 C 14,4 C 11,6 C 0,0 C 64 % 73 % 0 % 1012,3 hPa 0,0 l/m 0,0 km/h (0 Bft) SW 225 0 min 0,0 UV-I 9,0 C 11,6 C 0,0 km/h (0 Bft)
22.04.2011 22:30 15,8 C 17,6 C 13,2 C 14,4 C 11,5 C 0,0 C 65 % 74 % 0 % 1012,3 hPa 0,0 l/m 0,2 km/h (0 Bft) W 270 0 min 0,0 UV-I 9,2 C 11,5 C 0,0 km/h (0 Bft)
22.04.2011 22:35 15,6 C 17,7 C 13,2 C 14,2 C 11,5 C 0,0 C 64 % 74 % 0 % 1012,3 hPa 0,0 l/m 0,2 km/h (0 Bft) W-SW 247 0 min 0,0 UV-I 8,8 C 11,5 C 0,0 km/h (0 Bft)
22.04.2011 22:40 15,7 C 17,7 C 13,0 C 14,3 C 11,4 C 0,0 C 65 % 74 % 0 % 1012,3 hPa 0,0 l/m 0,2 km/h (0 Bft) SW 225 0 min 0,0 UV-I 9,1 C 11,4 C 0,0 km/h (0 Bft)
22.04.2011 22:45 15,5 C 17,7 C 12,9 C 14,1 C 11,3 C 0,0 C 66 % 75 % 0 % 1012,3 hPa 0,0 l/m 0,2 km/h (0 Bft) S 180 0 min 0,0 UV-I 9,2 C 11,3 C 0,0 km/h (0 Bft)
22.04.2011 22:50 15,2 C 17,7 C 12,9 C 13,8 C 11,1 C 0,0 C 66 % 75 % 0 % 1012,3 hPa 0,0 l/m 0,2 km/h (0 Bft) S 180 0 min 0,0 UV-I 8,9 C 11,1 C 0,0 km/h (0 Bft)
22.04.2011 22:55 15,2 C 17,7 C 12,8 C 13,8 C 10,9 C 0,0 C 66 % 75 % 0 % 1012,3 hPa 0,0 l/m 0,0 km/h (0 Bft) SW 225 0 min 0,0 UV-I 8,9 C 10,9 C 0,0 km/h (0 Bft)
22.04.2011 23:00 15,0 C 17,7 C 12,7 C 13,6 C 10,8 C 0,0 C 67 % 75 % 0 % 1012,3 hPa 0,0 l/m 0,0 km/h (0 Bft) N-NW 337 0 min 0,0 UV-I 8,9 C 10,8 C 0,0 km/h (0 Bft)
22.04.2011 23:05 14,9 C 17,7 C 12,4 C 13,6 C 10,9 C 0,0 C 67 % 75 % 0 % 1012,3 hPa 0,0 l/m 0,2 km/h (0 Bft) O-NO 67 0 min 0,0 UV-I 8,8 C 10,9 C 0,0 km/h (0 Bft)
22.04.2011 23:10 14,6 C 17,6 C 12,3 C 13,3 C 10,8 C 0,0 C 67 % 75 % 0 % 1012,3 hPa 0,0 l/m 0,2 km/h (0 Bft) S-SW 202 0 min 0,0 UV-I 8,5 C 10,8 C 0,0 km/h (0 Bft)
22.04.2011 23:15 14,7 C 17,6 C 12,4 C 13,5 C 11,0 C 0,0 C 67 % 76 % 0 % 1012,1 hPa 0,0 l/m 0,2 km/h (0 Bft) N-NO 22 0 min 0,0 UV-I 8,6 C 11,0 C 0,0 km/h (0 Bft)
22.04.2011 23:20 14,7 C 17,5 C 12,3 C 13,5 C 11,0 C 0,0 C 67 % 76 % 0 % 1012,1 hPa 0,0 l/m 0,2 km/h (0 Bft) O-NO 67 0 min 0,0 UV-I 8,6 C 11,0 C 0,0 km/h (0 Bft)
22.04.2011 23:25 14,5 C 17,5 C 12,2 C 13,3 C 10,8 C 0,0 C 67 % 76 % 0 % 1012,1 hPa 0,0 l/m 0,0 km/h (0 Bft) O-NO 67 0 min 0,0 UV-I 8,4 C 10,8 C 0,0 km/h (0 Bft)
22.04.2011 23:30 14,3 C 17,5 C 12,1 C 13,1 C 10,7 C 0,0 C 68 % 76 % 0 % 1012,1 hPa 0,0 l/m 0,0 km/h (0 Bft) O-NO 67 0 min 0,0 UV-I 8,5 C 10,7 C 0,0 km/h (0 Bft)
22.04.2011 23:35 14,1 C 17,5 C 12,1 C 12,9 C 10,6 C 0,0 C 68 % 76 % 0 % 1012,3 hPa 0,0 l/m 0,2 km/h (0 Bft) NO 45 0 min 0,0 UV-I 8,3 C 10,6 C 2,1 km/h (1 Bft)
22.04.2011 23:40 14,0 C 17,5 C 12,0 C 12,9 C 10,6 C 0,0 C 68 % 76 % 0 % 1012,3 hPa 0,0 l/m 0,2 km/h (0 Bft) NO 45 0 min 0,0 UV-I 8,2 C 10,6 C 0,0 km/h (0 Bft)
22.04.2011 23:45 13,9 C 17,5 C 11,9 C 12,8 C 10,5 C 0,0 C 69 % 76 % 0 % 1012,3 hPa 0,0 l/m 0,2 km/h (0 Bft) NO 45 0 min 0,0 UV-I 8,3 C 10,5 C 0,0 km/h (0 Bft)
22.04.2011 23:50 14,0 C 17,4 C 11,9 C 12,8 C 10,3 C 0,0 C 69 % 76 % 0 % 1012,3 hPa 0,0 l/m 0,0 km/h (0 Bft) N-NW 337 0 min 0,0 UV-I 8,4 C 10,3 C 0,0 km/h (0 Bft)
22.04.2011 23:55 13,9 C 17,4 C 11,7 C 12,7 C 10,3 C 0,0 C 69 % 77 % 0 % 1012,1 hPa 0,0 l/m 0,3 km/h (0 Bft) N-NW 337 0 min 0,0 UV-I 8,3 C 10,3 C 0,0 km/h (0 Bft)
_ Min-Zeit 06:00 09:10 06:00 05:55 06:15 00:00 16:55 16:00 00:00 16:15 - 00:00 - - - 00:00 05:55 06:15 00:00
Minimum _ 7,5 C 14,3 C 6,0 C 6,4 C 3,9 C 0,0 C 32 % 31 % 0 % 1011,4 hPa - 0,0 km/h (0 Bft) - - - 0,0 UV-I 4,4 C 3,9 C 0,0 km/h (0 Bft)
_ Max-Zeit 16:45 19:20 15:10 15:35 15:35 09:15 06:10 07:10 08:30 00:00 00:00 17:00 - - 08:25 12:35 14:20 15:35 17:15
Maximum _ 24,5 C 17,9 C 26,9 C 28,0 C 28,0 C 7,8 C 82 % 88 % 100 % 1015,6 hPa 0,0 l/m 10,5 km/h
NO (2 Bft)
- - 5 min 2,6 UV-I 11,9 C 28,0 C 16,7 km/h
O-NO (3 Bft)
Durchschnitt _ 16,6 C 16,2 C 15,7 C 17,4 C 16,2 C 1,5 C 60 % 65 % 35 % 1013,4 hPa #0,0 l/m 2,2 km/h (1 Bft) O-NO - #5:50 h 1,2 UV-I 8,1 C 16,2 C 2,7 km/h (1 Bft)
2013 www.wetterstation-wechselburg.de